• In Belarus
  • List of Countries
  • For 7 days
  • Water Temperature
  • Satellite Maps
  • Weather Map
  • Weather Widgets
  • user-avatar
    Login

    Hourly Weather Bihać

    Today, 23 January, Tuesday

    Time Temperature Precipitation Wind Pressure Humidity
    00:00 +2°C° 0 mm 1 mps 708 mmHg 76%
    01:00 +1°C° 0 mm 1 mps 708 mmHg 77%
    02:00 +1°C° 0 mm 1 mps 708 mmHg 78%
    03:00 +1°C° 0 mm 1 mps 708 mmHg 79%
    04:00 +1°C° 0 mm 1 mps 709 mmHg 80%
    05:00 +1°C° 0 mm 1 mps 709 mmHg 81%
    06:00 +1°C° 0 mm 1 mps 710 mmHg 82%
    07:00 +1°C° 0 mm 1 mps 710 mmHg 83%
    08:00 +1°C° 0.1 mm 2 mps 711 mmHg 81%
    09:00 +2°C° 0.1 mm 2 mps 712 mmHg 79%
    10:00 +3°C° 0.1 mm 2 mps 713 mmHg 77%
    11:00 +3°C° 0 mm 3 mps 713 mmHg 74%
    12:00 +3°C° 0 mm 3 mps 714 mmHg 71%
    13:00 +7°C° 0 mm 1 mps 715 mmHg 69%
    14:00 +6°C° 0 mm 2 mps 715 mmHg 71%
    15:00 +5°C° 0 mm 2 mps 716 mmHg 73%
    16:00 +4°C° 0 mm 2 mps 716 mmHg 74%
    17:00 +3°C° 0 mm 2 mps 716 mmHg 79%
    18:00 +2°C° 0 mm 2 mps 717 mmHg 83%
    19:00 0°C° 0 mm 3 mps 717 mmHg 87%
    20:00 -1°C° 0 mm 2 mps 717 mmHg 88%
    21:00 -1°C° 0 mm 2 mps 718 mmHg 88%
    22:00 -1°C° 0 mm 2 mps 718 mmHg 89%
    23:00 -1°C° 0 mm 2 mps 718 mmHg 88%

    Tomorrow, 24 January, Wednesday

    Time Temperature Precipitation Wind Pressure Humidity
    00:00 -1°C° 0 mm 2 mps 718 mmHg 88%
    01:00 -1°C° 0 mm 2 mps 718 mmHg 88%
    02:00 -1°C° 0 mm 2 mps 718 mmHg 87%
    03:00 -1°C° 0 mm 2 mps 718 mmHg 86%
    04:00 -1°C° 0 mm 2 mps 718 mmHg 85%
    05:00 -1°C° 0 mm 2 mps 718 mmHg 84%
    06:00 -1°C° 0 mm 2 mps 718 mmHg 82%
    07:00 +1°C° 0 mm 1 mps 719 mmHg 81%
    08:00 +3°C° 0 mm 1 mps 719 mmHg 76%
    09:00 +4°C° 0 mm 1 mps 719 mmHg 70%
    10:00 +6°C° 0 mm 1 mps 720 mmHg 65%
    11:00 +7°C° 0 mm 1 mps 720 mmHg 62%
    12:00 +8°C° 0 mm 1 mps 720 mmHg 60%
    13:00 +9°C° 0 mm 1 mps 719 mmHg 57%
    14:00 +9°C° 0 mm 1 mps 719 mmHg 62%
    15:00 +8°C° 0 mm 1 mps 719 mmHg 67%
    16:00 +7°C° 0 mm 1 mps 719 mmHg 73%
    17:00 +6°C° 0 mm 1 mps 719 mmHg 76%
    18:00 +5°C° 0 mm 1 mps 718 mmHg 80%
    19:00 +3°C° 0 mm 1 mps 718 mmHg 83%
    20:00 +3°C° 0 mm 1 mps 718 mmHg 83%
    21:00 +3°C° 0 mm 1 mps 718 mmHg 83%
    22:00 +3°C° 0 mm 1 mps 718 mmHg 83%
    23:00 +3°C° 0 mm 1 mps 718 mmHg 83%

    Day after tomorrow, 25 January, Thursday

    Time Temperature Precipitation Wind Pressure Humidity
    00:00 +3°C° 0 mm 1 mps 718 mmHg 84%
    01:00 +3°C° 0 mm 1 mps 718 mmHg 84%
    02:00 +3°C° 0 mm 1 mps 717 mmHg 85%
    03:00 +2°C° 0 mm 1 mps 717 mmHg 86%
    04:00 +1°C° 0 mm 2 mps 717 mmHg 87%
    05:00 +1°C° 0 mm 2 mps 717 mmHg 87%
    06:00 +1°C° 0 mm 2 mps 716 mmHg 87%
    07:00 +1°C° 0 mm 2 mps 716 mmHg 87%
    08:00 +3°C° 0 mm 2 mps 716 mmHg 83%
    09:00 +3°C° 0 mm 3 mps 717 mmHg 79%
    10:00 +4°C° 0 mm 3 mps 717 mmHg 76%
    11:00 +5°C° 0 mm 3 mps 716 mmHg 74%
    12:00 +7°C° 0 mm 3 mps 716 mmHg 73%
    13:00 +8°C° 0 mm 3 mps 716 mmHg 72%
    14:00 +7°C° 0 mm 3 mps 715 mmHg 76%
    15:00 +7°C° 0 mm 3 mps 715 mmHg 79%
    16:00 +5°C° 0 mm 3 mps 715 mmHg 83%
    17:00 +4°C° 0 mm 3 mps 715 mmHg 85%
    18:00 +4°C° 0 mm 3 mps 714 mmHg 88%
    19:00 +3°C° 0 mm 3 mps 714 mmHg 90%
    20:00 +3°C° 0 mm 3 mps 714 mmHg 90%
    21:00 +3°C° 0 mm 4 mps 714 mmHg 90%
    22:00 +1°C° 0 mm 4 mps 714 mmHg 91%
    23:00 +1°C° 0 mm 4 mps 714 mmHg 90%

    26 January, Friday

    Time Temperature Precipitation Wind Pressure Humidity
    00:00 +1°C° 0 mm 4 mps 713 mmHg 89%
    01:00 +1°C° 0 mm 4 mps 713 mmHg 89%
    02:00 0°C° 0 mm 4 mps 713 mmHg 88%
    03:00 0°C° 0 mm 4 mps 712 mmHg 88%
    04:00 0°C° 0 mm 4 mps 712 mmHg 87%
    05:00 0°C° 0 mm 4 mps 712 mmHg 86%
    06:00 0°C° 0 mm 4 mps 712 mmHg 85%
    07:00 0°C° 0 mm 4 mps 712 mmHg 84%
    08:00 +1°C° 0 mm 4 mps 712 mmHg 81%
    09:00 +3°C° 0 mm 5 mps 712 mmHg 77%
    10:00 +5°C° 0 mm 5 mps 712 mmHg 74%
    11:00 +5°C° 0 mm 5 mps 712 mmHg 73%
    12:00 +6°C° 0 mm 5 mps 712 mmHg 72%
    13:00 +7°C° 0 mm 5 mps 712 mmHg 72%
    14:00 +6°C° 0 mm 5 mps 712 mmHg 74%
    15:00 +6°C° 0 mm 4 mps 712 mmHg 77%
    16:00 +6°C° 0 mm 4 mps 712 mmHg 80%
    17:00 +5°C° 0 mm 4 mps 712 mmHg 82%
    18:00 +4°C° 0 mm 4 mps 712 mmHg 84%
    19:00 +3°C° 0 mm 4 mps 712 mmHg 86%
    20:00 +3°C° 0 mm 4 mps 712 mmHg 85%
    21:00 +3°C° 0 mm 4 mps 712 mmHg 85%
    22:00 +3°C° 0 mm 4 mps 712 mmHg 85%
    23:00 +3°C° 0 mm 4 mps 712 mmHg 85%

    27 January, Saturday

    Time Temperature Precipitation Wind Pressure Humidity
    00:00 +3°C° 0 mm 4 mps 712 mmHg 85%
    01:00 +3°C° 0 mm 4 mps 712 mmHg 85%
    02:00 +3°C° 0 mm 4 mps 712 mmHg 85%
    03:00 +1°C° 0 mm 4 mps 712 mmHg 85%
    04:00 +1°C° 0 mm 4 mps 712 mmHg 86%
    05:00 +1°C° 0 mm 4 mps 713 mmHg 86%
    06:00 +1°C° 0 mm 4 mps 713 mmHg 86%
    07:00 +1°C° 0 mm 4 mps 713 mmHg 86%
    08:00 +4°C° 0 mm 4 mps 714 mmHg 83%
    09:00 +5°C° 0 mm 4 mps 714 mmHg 80%
    10:00 +7°C° 0 mm 3 mps 715 mmHg 77%
    11:00 +8°C° 0 mm 3 mps 715 mmHg 74%
    12:00 +9°C° 0 mm 3 mps 716 mmHg 72%
    13:00 +10°C° 0 mm 3 mps 716 mmHg 70%
    14:00 +9°C° 0 mm 3 mps 716 mmHg 73%
    15:00 +9°C° 0 mm 3 mps 716 mmHg 76%
    16:00 +8°C° 0 mm 2 mps 716 mmHg 79%
    17:00 +7°C° 0 mm 2 mps 717 mmHg 83%
    18:00 +6°C° 0 mm 2 mps 717 mmHg 86%
    19:00 +5°C° 0 mm 2 mps 718 mmHg 90%
    20:00 +4°C° 0 mm 2 mps 718 mmHg 90%
    21:00 +4°C° 0 mm 2 mps 719 mmHg 90%
    22:00 +4°C° 0 mm 2 mps 719 mmHg 91%
    23:00 +4°C° 0 mm 2 mps 719 mmHg 91%

    28 January, Sunday

    Time Temperature Precipitation Wind Pressure Humidity
    00:00 +2°C° 0 mm 3 mps 719 mmHg 91%
    01:00 +2°C° 0 mm 3 mps 720 mmHg 91%
    02:00 +2°C° 0 mm 3 mps 720 mmHg 91%
    03:00 +2°C° 0 mm 3 mps 720 mmHg 91%
    04:00 +2°C° 0 mm 3 mps 720 mmHg 91%
    05:00 +2°C° 0 mm 3 mps 720 mmHg 91%
    06:00 +2°C° 0 mm 2 mps 720 mmHg 91%
    07:00 +2°C° 0 mm 2 mps 720 mmHg 91%
    08:00 +3°C° 0 mm 2 mps 721 mmHg 86%
    09:00 +4°C° 0 mm 2 mps 721 mmHg 82%
    10:00 +5°C° 0 mm 2 mps 722 mmHg 78%
    11:00 +8°C° 0 mm 1 mps 722 mmHg 73%
    12:00 +9°C° 0 mm 1 mps 722 mmHg 68%
    13:00 +10°C° 0 mm 1 mps 722 mmHg 63%
    14:00 +10°C° 0 mm 1 mps 721 mmHg 66%
    15:00 +9°C° 0 mm 1 mps 721 mmHg 70%
    16:00 +9°C° 0 mm 1 mps 721 mmHg 73%
    17:00 +8°C° 0 mm 1 mps 721 mmHg 78%
    18:00 +6°C° 0 mm 1 mps 721 mmHg 82%
    19:00 +5°C° 0 mm 1 mps 721 mmHg 87%
    20:00 +5°C° 0 mm 1 mps 722 mmHg 88%
    21:00 +4°C° 0 mm 1 mps 722 mmHg 88%
    22:00 +4°C° 0 mm 1 mps 722 mmHg 89%
    23:00 +4°C° 0 mm 1 mps 722 mmHg 88%
    Show more